Location: Kuppenheim
(48.8299°N, 8.2568°E)
Time: 15:37:49
(UTC+00:00)

Cosmos 1825 - Pass Details

Date: 20 June 2021
Orbit: 501 x 506 km, 82.5° (Epoch: 04 August)

Event Time Altitude Azimuth Distance (km) Brightness Sun altitude
Exits shadow 01:47:45 - 256° (WSW) 1,788 4.5 -11.3°
Reaches altitude 10° 01:48:01 10° 259° (W) 1,723 4.4 -11.3°
Maximum altitude 01:50:10 15° 294° (WNW) 1,463 4.4 -11.1°
Drops below altitude 10° 01:52:19 10° 329° (NNW) 1,729 5.2 -10.9°
Sets 01:55:17 0° 354° (N) 2,619 6.6 -10.7°
